Other Surface Observations
Issued by NWS Tucson, AZ

Home | Current Version | Previous Version | Text Only | Print | Product List | Glossary On
Versions: 1 2 3 4 5 6 7 8 9 10 11 12 13 14 15 16 17 18 19 20 21 22 23 24 25 26 27 28 29 30 31 32 33 34 35 36 37 38 39 40 41 42 43 44 45 46 47 48 49 50
000
SXUS55 KTWC 171716
OSOTWC

WEATHER ROUNDUP FOR SOUTHEAST ARIZONA
NATIONAL WEATHER SERVICE TUCSON AZ
1015 AM MST WED SEP 17 2014

AZZ504>506-514-171815-
LOCATION       SKY/WX    TMP DP  RH WIND       PRES   REMARKS
TUCSON         LGT RAIN  76  69  79 E8        29.93R
DAVIS-MONTHAN  LGT RAIN  75  68  78 E8        29.91S
CHILDRENS PARK N/A       72  70  94 W8                PIMA CO DEQ
ALVERNON/22ND  N/A      N/A N/A N/A N/A               PIMA CO DEQ
CHERRY/GLENN   N/A      N/A N/A N/A N/A               PIMA CO DEQ
TANGERINE      N/A       72 N/A N/A SW1               PIMA CO DEQ
CONTL RANCH    N/A       74  71  91 NW1               PIMA CO DEQ
GRANT/1ST      N/A       73  70  90 NW2               PIMA CO DEQ
CRAYCROFT/22ND N/A      N/A N/A N/A N/A               PIMA CO DEQ
GOLFLINKS/KOLB N/A       73  69  87 S2                PIMA CO DEQ
AJO/12TH       N/A       74  72  92 S3                PIMA CO DEQ
SAGUARO EAST   N/A      N/A N/A N/A N/A               PIMA CO DEQ
FAIRGROUNDS    N/A      N/A N/A N/A N/A               PIMA CO DEQ
SAGUARO        N/A       73  69  87 W4G11             *SABINO CYN
SAN CARLOS     N/A       73  70  90 CALM              *SAN CARLOS
GREEN VALLEY   N/A       70  68  94 N5                PIMA CO DEQ
HORSE CAMP CYN N/A       69  64  84 E9G12             *ARAVAIPA CYN
RINCON MTNS    N/A       54  54  100 SE9G18           *NR MANNING CAMP
$$

AZZ509>511-171815-
LOCATION       SKY/WX    TMP DP  RH WIND       PRES   REMARKS
SAFFORD        CLOUDY    75  65  70 SE10      29.99S
STRAY HORSE    N/A       60  59  95 E4                *
TRAIL CABIN    N/A       62  60  92 E7G13             *N OF GRANVILLE
BLACK HILLS    N/A       71  68  91 W3                *N OF FT THOMAS
DRY LAKE       N/A       57  57  100 SE5G12           *NATANES MTNS
NOON CREEK     N/A       65  64  95 SE3               *PINALENO MTNS
COLUMBINE      N/A       51  50  97 S4G11             *PINALENO MTNS
GUTHRIE        N/A       60  60  99 E10G15            *SW OF GUTHRIE
$$

AZZ502-503-513-171815-
LOCATION       SKY/WX    TMP DP  RH WIND       PRES   REMARKS
NOGALES        LGT RAIN  68  66  93 SW3       29.98R
SELLS          N/A       72  70  93 E7G12             *
SASABE         N/A       68  66  94 CALM              *ALTAR VLY
HOPKINS        N/A       56  56  100 E35G50           *SANTA RITA MTNS
CARR CYN       N/A       63  62  96 NE4G12            *W OF HEREFORD
$$

AZZ507-508-512-171815-
LOCATION       SKY/WX    TMP DP  RH WIND       PRES   REMARKS
SIERRA VISTA   LGT RAIN  66  64  94 E7        30.04S FOG
DOUGLAS        CLOUDY    75  62  64 SE12      30.03F
EMPIRE MTNS    N/A       66  64  94 E7G13             *LAS CIENEGAS NCA
MULESHOE RANCH N/A       69  61  76 E8G15             *PRESERVE
HEADQUARTERS   N/A       70  62  75 NE6G14            *CHIRICAHUA MTNS
$$

.............................NOTES.............................
THIS IS AN AUTOMATED COLLECTIVE WITH MINIMAL QUALITY CONTROL.
PIMA CO DEQ SITES HAVE NONSTANDARD WIND SENSOR HEIGHTS.
PIMA CO DEQ SITES DO NOT REPORT WIND GUSTS.
* INDICATES WIND SENSORS LOCATED AT 20 FEET INSTEAD OF 33 FEET.
..............................KEY..............................
SKY/WX - SKY CONDITION/WEATHER
TMP    - TEMPERATURE IN FAHRENHEIT
DP     - DEWPOINT IN FAHRENHEIT
RH     - RELATIVE HUMIDITY IN PERCENT
WIND   - DIRECTION AND SPEED IN MILES PER HOUR (MPH)
VRB    - VARIABLE WIND DIRECTION
PRES   - MEAN SEA LEVEL PRESSURE IN INCHES OF MERCURY
         F - FALLING PRESSURE   R - RISING PRESSURE
         S - STEADY PRESSURE
VSB    - VISIBILITY IN MILES
HX     - HEAT INDEX IN FAHRENHEIT
WCI    - WIND CHILL INDEX IN FAHRENHEIT
N/A    - NOT AVAILABLE
AFB    - AIR FORCE BASE
         DAVIS-MONTHAN IS DAVIS-MONTHAN AIR FORCE BASE
CYN    - CANYON
MTNS   - MOUNTAINS
NCA    - NATIONAL CONSERVATION AREA
NR     - NEAR
VLY    - VALLEY
CONTL  - CONTINENTAL
PIMA CO DEQ - PIMA COUNTY DEPT OF ENVIRONMENTAL QUALITY



USA.gov is the U.S. government's official web portal to all federal, state and local government web resources and services.